| time (UTC) | temp F | wind direction | speed knots | gust knots | rain 1hr in | rain 24hr in | rain mn in | humidity % | barometer mb |
| 20260504081555 | 47 | 0 | 0.0 | 4.3 | 0.00 | 0.00 | 0.00 | 76 | 1016.0 |
| 20260504050136 | 50 | 190 | 0.0 | 4.3 | 0.00 | 0.00 | 0.00 | 60 | 1015.7 |
| 20260504044558 | 50 | 0 | 0.9 | 3.5 | 0.00 | 0.00 | 0.00 | 60 | 1015.8 |
| 20260504043058 | 49 | 163 | 0.9 | 2.6 | 0.00 | 0.00 | 0.00 | 61 | 1015.7 |
| 20260504041552 | 48 | 189 | 0.9 | 4.3 | 0.00 | 0.00 | 0.00 | 63 | 1015.6 |
| 20260504034553 | 46 | 0 | 0.0 | 0.9 | 0.00 | 0.00 | 0.00 | 66 | 1015.3 |
| 20260504033057 | 46 | 0 | 0.0 | 0.0 | 0.00 | 0.00 | 0.00 | 67 | 1015.3 |
| 20260504031632 | 46 | 0 | 0.0 | 0.9 | 0.00 | 0.00 | 0.00 | 67 | 1015.2 |
| 20260504030054 | 46 | 0 | 0.0 | 0.0 | 0.00 | 0.00 | 0.00 | 68 | 1015.1 |
| 20260504024559 | 46 | 0 | 0.0 | 0.0 | 0.00 | 0.00 | 0.00 | 67 | 1015.1 |
| 20260504023055 | 46 | 0 | 0.0 | 0.0 | 0.00 | 0.00 | 0.00 | 68 | 1015.1 |
| 20260504021603 | 47 | 0 | 0.0 | 0.0 | 0.00 | 0.00 | 0.00 | 68 | 1015.2 |
| 20260504020051 | 47 | 0 | 0.0 | 0.0 | 0.00 | 0.00 | 0.00 | 65 | 1015.1 |
| 20260504014552 | 48 | 0 | 0.0 | 0.0 | 0.00 | 0.00 | 0.00 | 64 | 1015.3 |
| 20260504013102 | 48 | 0 | 0.0 | 0.0 | 0.00 | 0.00 | 0.00 | 62 | 1015.1 |
| 20260504011600 | 49 | 0 | 0.0 | 0.0 | 0.00 | 0.00 | 0.00 | 59 | 1014.9 |
| 20260504010113 | 50 | 0 | 0.0 | 0.0 | 0.00 | 0.00 | 0.00 | 56 | 1014.9 |
| 20260504004558 | 51 | 0 | 0.0 | 0.0 | 0.00 | 0.00 | 0.00 | 56 | 1014.7 |
| 20260504003055 | 52 | 0 | 0.0 | 0.0 | 0.00 | 0.00 | 0.00 | 51 | 1014.5 |
| 20260504001609 | 54 | 0 | 0.0 | 0.0 | 0.00 | 0.00 | 0.00 | 48 | 1014.4 |
| 20260504000059 | 56 | 0 | 0.0 | 0.9 | 0.00 | 0.00 | 0.00 | 45 | 1014.1 |
| 20260503234603 | 58 | 0 | 0.0 | 1.7 | 0.00 | 0.00 | 0.00 | 41 | 1014.1 |
| 20260503233058 | 59 | 232 | 0.0 | 1.7 | 0.00 | 0.00 | 0.00 | 39 | 1014.0 |
| 20260503231556 | 59 | 234 | 0.9 | 6.1 | 0.00 | 0.00 | 0.00 | 38 | 1014.0 |
| 20260503230059 | 59 | 256 | 0.0 | 2.6 | 0.00 | 0.00 | 0.00 | 39 | 1013.8 |
| 20260503224558 | 60 | 283 | 0.9 | 4.3 | 0.00 | 0.00 | 0.00 | 36 | 1013.8 |
| 20260503223101 | 59 | 335 | 0.9 | 6.1 | 0.00 | 0.00 | 0.00 | 38 | 1013.9 |
| 20260503221559 | 60 | 244 | 0.9 | 4.3 | 0.00 | 0.00 | 0.00 | 36 | 1014.0 |
| 20260503220054 | 60 | 0 | 1.7 | 6.1 | 0.00 | 0.00 | 0.00 | 36 | 1013.9 |
| 20260503214557 | 60 | 318 | 1.7 | 7.8 | 0.00 | 0.00 | 0.00 | 37 | 1013.9 |
| 20260503213133 | 60 | 251 | 2.6 | 10.4 | 0.00 | 0.00 | 0.00 | 36 | 1013.8 |
| 20260503211621 | 61 | 302 | 1.7 | 6.1 | 0.00 | 0.00 | 0.00 | 36 | 1013.7 |
| 20260503210054 | 61 | 252 | 0.9 | 9.6 | 0.00 | 0.00 | 0.00 | 38 | 1013.8 |
| 20260503204622 | 61 | 220 | 1.7 | 6.1 | 0.00 | 0.00 | 0.00 | 36 | 1013.8 |
| 20260503203115 | 60 | 241 | 1.7 | 11.3 | 0.00 | 0.00 | 0.00 | 37 | 1014.0 |
| 20260503201559 | 60 | 245 | 1.7 | 7.0 | 0.00 | 0.00 | 0.00 | 36 | 1014.2 |
| 20260503200059 | 60 | 319 | 1.7 | 10.4 | 0.00 | 0.00 | 0.00 | 40 | 1014.2 |
| 20260503194601 | 59 | 239 | 1.7 | 12.2 | 0.00 | 0.00 | 0.00 | 41 | 1014.2 |
| 20260503193059 | 58 | 284 | 0.9 | 10.4 | 0.00 | 0.00 | 0.00 | 44 | 1014.4 |
| 20260503191603 | 59 | 240 | 2.6 | 11.3 | 0.00 | 0.00 | 0.00 | 41 | 1014.6 |
| 20260503190057 | 59 | 188 | 1.7 | 9.6 | 0.00 | 0.00 | 0.00 | 37 | 1014.6 |
| 20260503184623 | 58 | 229 | 1.7 | 9.6 | 0.00 | 0.00 | 0.00 | 39 | 1014.8 |
| 20260503183105 | 58 | 285 | 4.3 | 10.4 | 0.00 | 0.00 | 0.00 | 39 | 1015.0 |
| 20260503181556 | 57 | 266 | 2.6 | 9.6 | 0.00 | 0.00 | 0.00 | 43 | 1014.9 |
| 20260503180058 | 57 | 39 | 1.7 | 12.2 | 0.00 | 0.00 | 0.00 | 42 | 1015.1 |
| 20260503174610 | 56 | 330 | 3.5 | 15.6 | 0.00 | 0.00 | 0.00 | 42 | 1015.2 |
| 20260503173125 | 56 | 303 | 2.6 | 7.0 | 0.00 | 0.00 | 0.00 | 45 | 1015.2 |
| 20260503171555 | 55 | 0 | 1.7 | 9.6 | 0.00 | 0.00 | 0.00 | 43 | 1015.4 |